RH
46 47 49 51 54 56 57 57 57 57 57 57 58 59 60 61 61 61 60 60 59 60 60 59 58 56 55 55 55 55 56 56 56 56 55 54 52 51 48 45 44 43 42 42 42 41 41 40 39 37 36 37 37 37 36 35 35 34 33 32 30 28 25 23 24 26 26 25 22 18 16 17 18 17 16 15 13 13 13 12 12 12 12 12 12
49 49 50 52 55 58 60 61 61 61 61 62 62 63 63 63 63 63 63 61 57 57 56 54 54 53 53 53 54 54 55 55 55 54 53 53 52 50 47 45 45 44 44 45 44 44 43 42 41 39 38 39 39 39 38 36 35 34 32 30 28 25 22 21 20 21 22 21 19 16 13 13 14 13 12 12 11 10 11 11 10 10 10 10 10
54 55 57 59 60 61 62 62 63 63 64 65 65 65 66 65 65 64 63 61 58 57 55 54 53 52 51 51 50 50 52 52 52 52 52 52 51 48 45 45 46 46 47 47 46 44 44 43 43 42 40 40 40 39 38 36 33 32 30 27 26 24 21 20 19 18 19 18 17 14 12 10 11 10 10 9 9 9 9 10 10 10 10 10 10
44 48 53 57 61 63 65 65 66 66 65 64 64 64 64 64 63 63 62 61 60 60 59 58 56 54 53 52 51 51 52 53 54 54 53 52 51 50 48 48 49 50 51 51 48 47 46 46 45 43 42 40 39 36 35 33 31 30 29 26 24 23 20 18 17 15 15 15 14 12 10 9 9 9 9 9 9 9 8 8 9 9 8 8 8
32 34 38 42 47 52 57 62 65 67 66 65 64 63 63 63 62 61 62 61 61 61 61 60 58 57 56 54 54 54 54 55 56 55 54 53 52 51 50 50 51 52 53 53 51 50 48 47 44 42 40 38 36 34 32 31 30 28 26 24 22 20 18 15 14 12 12 12 11 11 10 10 10 9 9 9 9 8 8 8 8 8 8 7 7
42 41 41 42 44 46 49 53 58 62 66 67 68 67 66 65 64 63 63 62 62 62 61 60 58 57 56 56 56 57 58 59 60 60 59 57 56 54 53 54 54 55 55 53 52 50 47 45 42 39 38 36 34 33 30 29 27 24 23 20 18 16 14 13 12 11 11 10 10 10 9 9 9 9 8 8 8 8 8 8 7 7 7 6 6
64 62 60 58 58 58 58 59 62 66 71 75 78 79 79 78 76 76 77 77 77 76 75 73 71 70 69 68 68 68 69 71 71 71 69 65 62 60 58 58 58 57 55 52 50 48 44 41 39 37 35 34 32 30 28 25 23 20 18 16 14 13 12 12 11 11 10 10 9 9 9 8 8 8 8 7 7 7 6 7 7 7 6 6 6
77 76 75 74 73 73 73 74 75 78 80 83 85 88 89 90 91 92 93 94 94 92 91 89 87 85 83 81 79 77 76 77 77 75 72 66 62 59 58 58 58 55 52 48 46 43 40 37 35 33 31 29 28 25 22 20 18 16 15 13 13 12 12 11 11 10 10 9 9 9 8 8 8 7 7 7 6 6 6 6 6 7 7 7 6
76 76 77 78 78 79 80 81 83 84 85 87 88 90 92 93 93 93 94 94 94 93 92 91 88 86 84 81 78 75 73 73 73 72 69 64 58 55 55 54 53 49 46 43 40 38 36 33 31 28 25 23 21 19 17 16 15 15 14 13 12 12 11 11 10 10 10 9 9 9 8 8 7 7 7 6 7 6 6 6 6 6 7 7 6
74 75 77 78 79 79 80 80 81 81 82 83 84 85 85 85 83 82 82 81 80 79 78 76 74 72 70 68 66 64 63 62 63 64 62 58 52 50 50 49 48 45 41 38 35 32 29 26 23 21 19 18 16 15 15 14 14 14 13 12 12 11 11 11 10 10 10 9 9 8 8 7 7 7 7 6 7 6 6 6 5 5 6 6 6
72 75 78 81 83 85 86 86 86 86 85 85 85 84 82 81 79 78 77 77 77 76 75 74 72 70 68 66 64 63 61 60 61 64 63 57 49 45 46 45 42 38 33 30 26 23 20 19 18 16 16 15 15 14 14 13 13 13 12 12 12 12 12 11 11 10 9 9 9 8 8 8 7 7 6 6 6 6 5 5 5 5 6 5 5
64 67 70 73 77 81 83 85 86 87 87 86 85 84 82 80 79 77 76 77 77 77 76 74 73 70 67 65 62 60 58 55 54 55 54 48 40 35 34 32 29 26 23 21 19 17 17 16 15 15 15 14 14 13 13 13 13 13 13 13 12 11 11 10 10 10 9 9 9 8 7 7 6 6 6 5 6 6 5 5 5 5 4 4 4
62 63 65 66 67 68 70 72 74 74 75 75 74 72 71 68 66 63 62 61 60 60 59 57 55 52 50 47 45 42 40 37 35 34 34 32 27 24 23 22 21 20 18 18 17 16 15 15 14 14 14 14 14 14 14 14 13 13 12 12 11 10 10 10 10 9 9 9 8 8 7 6 6 6 5 5 5 4 4 4 3 3 3 3 3
67 68 68 67 66 64 64 64 64 64 65 65 63 61 59 56 53 50 49 47 46 45 43 41 39 37 35 33 31 30 28 26 25 24 24 23 21 20 19 19 19 18 17 17 16 15 15 14 14 13 14 14 14 14 14 13 12 12 12 11 11 10 10 10 9 8 8 8 7 7 7 6 5 5 4 4 4 3 4 4 3 4 3 3 3
66 67 67 66 65 63 63 62 61 61 61 60 59 57 55 52 49 46 44 42 41 39 37 36 34 32 31 29 28 27 25 24 23 22 22 22 21 20 20 20 19 18 17 16 15 15 14 13 13 13 13 13 13 13 13 13 12 12 12 11 11 10 9 9 8 8 7 7 6 5 5 4 4 4 4 4 4 4 4 4 4 4 4 4 4
56 57 58 58 58 58 58 58 57 57 56 55 54 51 49 47 44 41 40 38 37 36 35 34 33 31 30 28 27 27 26 25 25 24 23 22 21 20 19 18 18 17 16 15 14 14 14 14 13 13 13 13 13 13 13 13 13 12 11 11 10 9 8 7 7 6 5 5 4 4 4 4 4 4 4 4 4 4 4 4 4 4 4 4 4
54 55 55 56 55 55 55 54 53 51 49 48 46 44 42 41 39 38 37 37 36 35 34 33 32 31 30 28 27 27 25 24 23 22 21 20 18 18 17 16 16 15 15 15 15 15 14 14 14 14 14 14 13 13 13 13 12 11 10 9 8 7 6 6 5 5 5 5 5 5 5 5 4 4 4 4 4 4 4 4 4 4 4 4 4
57 57 57 57 56 54 53 52 50 48 46 45 44 43 41 41 39 38 37 36 35 34 34 32 31 30 28 26 25 24 22 21 21 20 19 18 17 17 16 16 16 16 16 16 16 16 15 15 15 14 14 14 13 12 12 11 10 9 8 8 7 7 7 6 6 6 6 5 5 5 5 5 4 5 4 4 4 4 4 4 4 4 4 4 4
56 56 56 54 53 51 50 49 48 47 46 45 44 43 42 41 39 38 37 35 34 32 31 29 27 26 25 23 22 22 21 20 20 20 20 19 18 17 17 17 17 16 17 16 16 16 15 14 14 13 12 12 11 10 10 9 9 9 9 9 9 8 7 7 7 6 6 5 5 5 5 5 5 5 4 4 4 4 4 4 3 3 4 3 3
55 54 53 51 50 49 48 48 48 48 48 47 45 44 42 40 39 37 35 33 31 29 28 27 26 25 24 23 23 23 22 22 22 22 22 21 20 19 17 17 17 16 16 16 15 15 14 13 12 12 11 10 10 10 10 10 10 10 9 9 8 8 7 7 7 6 6 6 6 5 5 5 4 4 4 4 4 3 3 3 3 3 3 3 3
58 57 56 55 54 54 54 53 52 51 50 48 46 43 41 39 36 34 32 31 30 29 28 28 27 27 26 26 26 25 24 24 23 22 22 21 20 19 17 17 16 15 15 14 14 13 12 12 12 12 12 12 11 11 10 9 9 9 8 9 8 8 8 7 7 7 6 6 6 5 5 5 4 4 4 4 3 3 3 2 2 2 2 2 3
63 62 62 61 60 59 57 55 53 51 48 46 44 41 39 37 35 34 33 33 32 32 32 31 31 30 29 28 27 26 25 24 23 21 20 20 19 18 16 15 14 14 13 13 14 14 13 13 12 12 11 10 10 10 9 9 9 9 9 9 9 8 8 8 7 7 6 6 6 5 5 5 4 4 3 3 3 3 3 3 2 2 2 2 3
66 64 62 60 58 56 55 53 50 48 46 44 42 41 39 38 38 38 37 37 36 36 35 34 33 31 30 28 27 25 24 22 21 19 18 17 16 16 16 15 15 14 14 14 13 13 11 11 10 10 10 10 10 10 10 9 9 9 8 8 8 8 8 7 7 7 6 6 6 5 5 4 4 4 3 3 3 3 3 3 3 2 3 2 2
64 62 59 57 55 53 52 50 49 47 46 45 45 45 44 44 43 42 41 39 38 37 35 34 32 31 29 27 24 22 20 19 18 17 17 17 17 17 16 16 14 13 12 11 10 10 10 10 10 11 11 10 10 10 9 9 8 8 8 8 7 7 7 6 6 6 6 6 5 4 4 4 4 4 4 3 3 3 3 3 3 3 3 2 2
64 63 61 59 57 54 53 52 52 51 51 50 50 49 48 47 45 43 42 39 37 36 33 31 29 26 24 22 21 20 19 19 19 19 18 17 15 14 13 12 11 11 11 11 11 12 12 11 11 11 10 9 9 9 8 8 8 7 7 7 7 7 6 6 6 6 5 5 4 4 4 4 4 4 4 4 4 3 3 3 3 2 2 2 2
68 66 65 64 62 60 59 57 56 55 54 53 52 51 49 48 45 42 40 36 33 30 28 25 24 23 23 22 22 21 20 19 17 15 14 13 12 12 12 12 12 13 12 12 12 12 11 11 10 9 9 8 8 8 7 7 7 7 7 7 6 6 6 6 5 5 5 4 4 4 4 4 4 4 3 3 3 3 3 3 3 3 2 2 2
72 70 69 68 65 63 62 60 58 57 56 54 52 50 47 43 40 36 33 30 28 27 26 26 26 26 24 22 20 18 15 13 12 12 12 13 13 13 14 14 13 13 12 11 11 10 10 9 8 8 8 7 7 7 7 7 7 6 6 6 6 6 6 5 5 4 4 4 4 4 4 4 4 4 3 3 3 3 3 3 3 3 3 2 2
72 70 68 66 65 64 63 62 60 57 54 51 46 43 39 36 34 33 32 32 32 31 29 27 24 21 19 16 14 13 12 12 13 14 14 15 14 14 14 13 12 11 10 9 9 8 8 8 8 7 7 7 7 7 7 7 7 6 6 6 6 5 5 5 5 4 5 5 4 4 4 4 4 3 3 3 3 3 3 3 3 3 3 3 3
71 69 68 67 66 65 63 60 56 51 47 44 40 38 38 37 37 37 36 34 32 28 24 20 17 15 14 13 13 14 14 14 15 14 14 13 13 12 11 10 10 9 8 8 8 7 7 7 7 7 7 7 7 7 7 7 7 7 7 6 5 5 5 5 5 5 5 5 4 4 4 4 4 4 3 3 3 3 3 3 3 3 3 3 3
74 72 70 67 64 61 57 53 50 47 45 44 43 43 42 41 39 36 32 27 23 19 17 15 14 14 15 15 15 15 15 14 14 13 12 11 10 9 9 9 8 8 8 7 7 7 7 7 7 7 7 7 7 7 7 7 7 6 6 6 5 6 5 5 5 5 5 5 4 4 4 4 4 4 4 3 3 3 3 4 3 3 3 4 3
76 72 67 63 58 55 53 51 50 49 49 48 47 45 42 37 32 27 23 19 17 16 16 16 16 17 17 16 16 15 13 12 11 10 10 9 8 8 8 8 8 8 7 7 7 7 7 7 7 7 7 7 7 7 7 7 7 6 6 6 6 6 6 5 5 5 5 5 5 4 4 4 4 4 4 4 4 3 4 4 4 4 4 4 4
73 67 62 58 55 53 52 52 52 52 51 48 44 38 33 28 24 20 18 18 17 17 17 17 17 17 16 15 14 12 11 10 10 9 9 8 8 8 8 8 8 8 7 7 7 7 7 7 7 7 7 7 7 7 7 7 6 6 6 6 6 6 5 5 5 5 5 5 5 5 5 4 4 4 4 4 4 4 4 4 4 4 4 4 4
67 62 58 55 54 54 54 54 52 49 45 40 34 30 26 23 21 20 19 18 18 18 18 17 16 15 13 12 11 10 10 10 9 9 9 8 8 8 8 8 8 8 8 8 8 8 8 8 8 8 8 8 7 7 7 7 7 7 6 6 6 5 5 5 5 5 5 5 5 5 5 5 5 4 4 4 4 4 4 4 4 4 4 4 4
63 60 58 58 57 56 54 50 46 41 36 32 29 26 23 22 21 20 19 19 18 17 16 15 13 12 11 10 10 10 10 10 10 9 9 9 8 8 8 8 9 9 9 9 8 8 8 9 9 8 8 8 7 7 7 7 7 6 6 6 5 5 5 5 5 5 5 5 5 5 5 5 5 5 4 5 5 5 5 5 5 4 4 4 4
63 62 62 61 58 54 48 43 39 35 32 29 26 24 23 22 21 21 20 18 16 14 13 12 11 10 10 10 9 10 10 10 10 9 9 8 8 8 8 8 8 9 9 9 9 9 9 9 8 8 8 8 8 7 7 7 6 6 6 6 6 5 5 5 5 5 5 5 6 6 6 5 5 5 5 5 5 5 5 5 5 5 4 4 4
66 65 63 59 54 48 43 39 36 32 29 27 26 25 24 23 21 19 17 15 13 12 12 12 11 10 10 9 9 9 9 9 10 9 9 9 8 8 8 8 8 8 9 9 9 9 9 9 9 8 8 8 7 7 6 6 6 6 6 6 6 6 6 5 5 6 6 6 6 6 6 6 5 5 5 5 5 5 5 5 5 5 5 4 4
67 65 61 55 50 45 42 38 34 31 29 28 27 25 23 20 18 16 14 13 12 12 12 12 12 11 11 11 10 9 9 9 9 9 9 9 8 8 8 8 8 8 8 9 9 9 9 9 9 8 8 7 7 6 6 6 6 6 6 6 6 6 6 6 6 6 7 7 7 6 6 6 6 5 5 5 5 5 5 5 5 5 4 4 4
67 63 58 52 47 43 39 36 33 31 30 28 25 22 19 17 15 14 14 13 13 12 12 12 12 12 11 11 11 10 9 9 9 9 9 9 9 9 8 8 8 8 8 9 9 9 9 9 9 8 7 7 7 6 6 6 6 6 6 6 7 7 6 7 7 7 7 7 6 6 6 6 6 6 5 5 5 5 5 5 4 4 4 4 4
65 60 54 49 45 41 38 35 33 30 27 24 21 18 16 15 15 14 14 13 13 13 12 12 12 11 11 11 11 10 10 10 10 10 10 10 10 9 9 9 9 9 10 10 9 9 9 8 8 8 7 7 7 6 6 6 6 6 7 7 7 7 7 7 7 7 7 7 6 6 6 6 5 6 5 5 5 5 5 5 5 4 4 4 4
61 55 49 45 41 38 36 33 29 26 22 20 18 17 16 15 14 14 14 14 13 13 12 12 12 11 11 11 10 10 10 10 10 10 10 11 11 10 10 11 10 10 10 10 9 9 8 8 8 8 7 7 7 6 7 7 6 7 7 7 7 7 7 7 7 7 7 7 6 6 6 6 6 6 6 5 5 5 5 5 4 4 4 4 4
55 49 45 41 38 35 32 27 24 21 20 18 18 16 16 15 14 14 14 14 13 13 12 12 12 12 12 12 11 11 11 10 10 10 10 10 10 11 11 12 11 11 10 10 9 9 8 8 8 8 8 7 7 7 7 7 7 7 8 8 8 8 8 7 8 8 7 7 7 6 6 6 6 6 6 6 5 5 5 5 5 5 4 5 4
49 44 41 37 34 30 25 22 21 20 19 18 17 16 16 15 15 15 14 14 13 13 12 12 12 12 12 12 12 11 11 11 10 10 10 10 11 11 12 12 11 10 10 10 9 9 9 8 8 8 8 8 8 8 8 8 8 8 8 8 8 8 8 8 8 7 7 7 6 6 6 6 6 6 6 5 5 5 5 5 5 5 5 5 5
43 40 36 32 27 24 22 21 20 19 19 18 17 16 16 15 15 15 14 14 13 13 13 12 13 13 13 13 13 12 12 11 11 11 12 12 12 12 11 11 10 10 10 10 10 9 9 8 8 9 9 9 8 8 8 8 8 8 8 9 8 8 8 8 8 8 7 7 6 6 6 7 6 6 6 5 5 5 5 5 5 5 5 5 5
38 34 30 26 23 22 21 20 20 19 18 17 17 16 16 15 15 15 14 14 14 13 13 13 13 13 13 13 13 13 13 13 13 14 14 13 13 12 11 10 10 10 10 10 10 9 9 8 8 9 9 9 9 9 9 9 9 9 9 9 9 9 8 8 8 8 7 7 7 7 7 7 6 6 6 6 6 6 6 6 6 6 6 6 6
32 28 25 23 22 21 21 20 19 18 17 17 16 16 16 15 15 15 14 14 14 14 14 14 14 13 13 13 13 13 14 15 16 16 15 13 13 12 12 11 11 10 10 10 10 9 9 9 9 9 9 10 10 10 9 9 9 9 9 9 9 9 9 8 8 7 7 7 7 7 7 7 6 6 6 6 6 7 6 6 6 6 6 6 6
27 25 23 22 22 21 20 19 18 17 17 17 17 16 16 16 16 15 15 14 14 14 14 14 14 14 14 13 13 14 15 16 16 15 14 13 13 12 12 12 11 11 11 10 10 10 10 9 9 9 10 11 11 10 10 10 9 9 9 9 9 8 8 8 8 8 8 8 8 7 7 7 7 7 7 7 7 7 7 7 7 7 7 7 7
24 23 22 22 21 20 19 18 18 17 17 16 16 16 16 16 16 15 15 15 15 15 15 14 14 14 14 15 16 16 16 16 15 13 12 12 12 12 12 11 11 11 11 11 11 11 11 10 10 10 10 10 10 10 9 9 9 9 9 9 8 8 8 8 8 8 8 8 7 7 7 7 7 7 8 8 7 8 8 8 8 8 7 7 8
23 22 22 21 20 19 18 18 17 17 17 16 17 16 16 16 16 16 16 15 15 15 15 14 14 15 16 17 17 17 15 14 14 13 13 13 13 12 12 11 12 12 12 12 12 12 11 10 10 10 10 10 10 9 9 9 9 9 9 9 8 8 8 8 9 8 8 8 8 8 8 8 8 8 8 8 8 8 9 9 9 8 8 8 8
22 22 21 20 19 19 18 17 17 17 17 17 17 16 16 16 16 16 16 16 15 15 15 15 16 18 18 18 17 15 14 14 14 14 14 14 13 12 12 13 13 14 13 13 12 11 10 10 9 9 9 9 9 9 9 10 10 9 9 9 9 9 9 9 9 8 8 8 9 9 9 9 9 9 9 9 9 9 9 9 10 9 9 9 9
21 20 20 19 18 18 18 17 17 17 17 17 17 16 17 17 17 16 16 16 15 15 16 17 19 19 18 17 15 14 14 14 15 15 15 14 13 13 14 14 14 14 13 12 11 10 9 9 9 9 9 9 9 9 10 10 10 9 9 9 9 9 9 9 9 8 9 10 10 10 10 10 10 10 10 9 9 10 10 10 10 10 10 10 10
20 19 19 18 18 17 17 18 18 18 17 17 17 17 17 17 17 17 16 16 16 18 19 20 20 19 17 16 15 15 15 16 16 15 15 14 14 15 15 14 14 13 11 10 10 10 9 9 9 9 10 10 10 10 10 10 10 10 10 10 10 10 9 9 9 10 10 11 11 11 11 11 10 10 10 10 10 10 10 10 10 10 10 10 10
Wind_Speed
117 118 118 118 119 119 120 121 122 124 125 126 128 129 130 131 132 133 134 135 135 136 137 138 139 139 140 140 141 141 141 141 142 142 142 142 142 142 142 142 142 141 141 141 141 141 141 141 141 140 140 139 139 139 139 139 139 139 140 140 139 139 138 136 135 135 136 136 136 134 134 135 136 137 137 136 136 136 137 137 137 137 137 137 137
115 116 116 116 116 117 117 118 118 119 120 121 123 124 126 127 129 130 132 133 134 135 136 137 138 139 139 140 140 141 141 141 142 142 143 143 143 143 143 143 143 142 142 142 142 143 143 142 142 141 141 140 141 140 141 141 141 141 140 140 140 139 138 136 136 135 136 137 137 136 135 135 136 136 135 134 134 134 134 134 134 134 134 134 135
112 113 114 114 115 115 116 116 117 117 118 119 120 121 122 124 125 127 129 130 132 133 135 136 137 138 138 139 139 140 140 141 141 142 143 143 143 143 143 143 143 143 143 143 144 143 143 143 143 142 141 141 141 141 141 141 141 141 141 140 140 139 138 138 137 136 136 137 137 136 134 134 134 134 133 132 131 131 131 131 132 132 132 132 133
110 111 111 111 112 113 113 115 115 116 118 119 120 121 122 123 124 126 127 128 130 131 133 134 135 136 137 137 138 138 139 140 141 141 142 143 143 143 143 143 143 143 144 144 144 143 143 143 142 142 141 141 141 141 141 141 141 141 141 140 140 140 139 139 138 137 136 135 135 134 133 132 133 133 132 131 130 130 130 130 130 130 131 131 131
108 109 109 109 110 111 112 113 114 115 117 118 119 121 122 123 124 125 127 128 129 130 131 132 133 134 135 136 136 137 138 138 139 140 141 142 142 142 142 142 142 142 143 143 143 142 142 142 141 141 141 141 141 141 141 141 141 141 141 141 140 139 139 138 136 135 134 134 133 133 132 132 131 132 131 131 130 130 130 130 130 129 129 129 129
105 106 106 107 108 109 110 111 112 114 115 116 118 119 120 122 123 124 125 126 127 128 129 130 131 132 133 134 134 135 135 136 137 138 139 140 140 140 140 140 141 141 142 142 142 142 141 141 141 141 141 141 141 142 142 142 142 141 140 140 139 138 137 136 135 134 134 133 133 132 132 131 131 131 131 130 129 129 129 129 129 130 129 129 129
102 103 104 105 106 106 108 109 110 111 113 114 115 117 118 120 121 122 123 124 125 126 127 128 129 130 130 131 132 132 133 134 135 136 137 138 139 139 139 139 139 140 141 141 141 141 141 141 141 141 141 142 142 142 141 141 140 140 139 138 137 136 136 135 135 134 134 133 133 132 131 130 130 130 130 130 129 129 128 128 129 130 130 129 129
100 100 101 102 103 104 105 106 108 109 111 112 113 115 116 118 119 120 121 122 123 124 125 126 127 128 129 129 130 131 131 132 133 134 136 137 137 138 138 138 139 140 141 141 141 141 141 141 141 141 141 141 141 140 139 139 138 138 137 137 136 136 136 135 135 135 134 133 132 132 131 131 130 130 130 130 130 130 128 127 127 128 129 130 129
98 99 100 101 102 103 104 105 106 108 109 110 112 113 114 116 117 118 119 120 121 123 124 125 126 127 128 128 129 130 131 131 132 133 135 136 137 138 138 138 139 140 141 141 141 141 141 140 140 139 139 138 138 138 138 137 137 138 137 137 136 136 135 135 134 134 133 133 132 132 132 131 131 130 130 130 130 130 128 127 126 126 127 128 127
97 98 99 100 101 102 103 104 105 106 108 109 110 112 113 115 116 117 118 119 120 121 122 124 125 126 127 128 129 130 131 131 132 133 135 137 137 137 138 138 139 140 140 140 139 139 138 138 137 137 136 137 137 137 137 137 137 137 137 136 135 134 134 134 134 133 133 133 133 133 133 132 132 131 130 130 129 129 127 126 125 125 125 125 125
96 97 98 99 100 101 101 103 104 105 106 107 109 110 112 113 114 116 117 118 119 120 121 122 123 125 126 127 128 129 130 130 131 132 134 136 136 136 136 136 137 137 137 137 137 136 136 136 136 135 136 136 137 137 137 136 136 136 135 134 134 133 133 134 134 134 133 134 134 133 133 132 131 130 129 128 127 126 125 124 123 123 123 123 123
96 97 98 99 100 100 101 102 103 104 105 107 108 109 110 112 113 114 115 116 117 118 119 121 122 123 124 125 126 127 128 129 129 130 132 134 135 134 134 134 135 135 136 136 136 136 136 135 135 135 135 135 135 135 135 134 134 134 134 134 134 133 133 133 133 133 133 133 133 133 131 130 129 128 127 125 124 123 123 122 122 121 121 121 121
96 97 98 99 100 101 102 103 104 105 106 107 108 109 110 112 113 114 115 116 117 118 119 120 121 123 124 125 126 127 128 129 129 130 131 133 134 134 133 134 134 135 135 135 135 135 135 134 133 133 133 133 133 132 133 133 133 133 134 134 134 133 133 133 132 131 131 130 130 130 129 128 127 126 125 123 122 121 120 120 120 119 119 119 119
97 98 99 100 101 102 103 104 105 106 107 108 109 110 111 112 113 114 115 116 117 118 119 120 122 123 124 125 126 127 128 129 129 130 130 131 132 132 132 132 132 133 133 133 132 132 132 131 131 130 130 130 131 131 132 132 133 133 133 133 132 132 131 131 130 129 128 127 126 126 125 125 124 123 122 121 120 119 118 118 118 117 117 117 117
97 98 99 101 101 102 103 104 105 106 107 108 109 110 111 112 113 114 115 116 116 118 119 120 121 122 123 124 125 126 126 127 127 128 128 128 129 128 128 128 129 129 129 129 129 129 129 129 129 129 129 129 129 130 130 131 131 131 130 130 129 129 128 127 127 126 125 124 124 123 122 121 120 120 119 118 117 116 115 115 114 114 114 115 115
96 97 98 99 100 101 102 103 104 105 106 107 108 109 110 111 112 113 113 114 115 116 117 118 119 120 121 121 122 122 123 123 124 124 125 125 125 124 124 124 125 125 126 126 127 127 128 128 127 127 127 127 127 128 128 128 128 127 127 127 126 126 126 125 124 124 123 122 121 120 119 118 117 116 115 114 113 112 112 112 111 111 110 110 111
93 94 96 97 98 99 100 101 102 103 104 105 106 107 108 109 110 110 111 112 112 113 114 115 116 117 118 118 119 119 120 120 120 120 121 122 122 121 121 121 122 122 123 124 124 125 125 126 126 125 125 125 124 124 124 124 124 124 124 124 124 124 124 123 122 121 120 119 118 117 117 116 115 114 113 112 110 109 108 108 107 107 107 106 106
92 93 94 95 96 97 98 99 100 101 102 103 103 104 105 106 107 108 109 110 110 111 112 113 113 114 115 115 116 116 116 117 117 117 118 119 119 119 119 119 120 120 121 122 122 122 123 123 122 122 121 121 121 121 121 121 122 122 122 122 122 122 121 120 120 119 118 117 116 115 114 113 112 111 110 109 107 106 104 102 102 102 102 101 100
90 91 92 93 94 95 96 97 98 98 99 100 101 102 103 104 105 106 107 107 108 109 109 110 110 111 111 112 112 113 113 114 114 115 116 117 118 118 118 118 118 119 119 119 119 119 119 119 119 119 119 119 119 119 118 118 119 119 119 119 119 119 118 118 117 116 115 114 113 112 111 109 108 107 106 105 104 102 100 98 97 96 96 96 95
88 89 90 91 92 93 94 94 95 96 97 98 99 100 101 102 103 104 104 105 106 106 107 107 108 109 109 110 111 111 112 113 113 114 115 116 117 118 117 116 116 116 116 117 117 117 117 117 117 117 116 116 116 116 115 115 116 116 116 116 116 116 115 114 113 112 112 111 109 108 106 105 104 103 102 101 100 98 97 95 93 92 91 91 91
87 88 89 89 90 91 92 93 94 95 96 97 98 99 99 100 101 102 102 103 104 105 105 106 107 108 109 109 110 111 112 112 113 113 114 115 115 116 115 115 114 114 114 114 114 114 114 113 113 113 113 113 113 113 113 113 113 112 112 112 111 111 110 110 109 108 107 106 105 104 102 101 101 100 99 98 96 96 95 94 92 90 89 88 87
85 86 87 88 89 90 91 92 93 94 94 95 96 97 97 98 99 100 101 102 103 104 105 106 107 108 108 109 110 110 110 111 111 112 112 112 113 114 114 113 112 112 112 111 111 111 111 111 110 110 110 110 110 110 110 109 109 108 107 106 106 105 104 104 103 103 102 102 101 100 98 97 97 96 96 95 94 94 93 93 91 89 87 86 84
84 85 86 87 88 89 89 90 91 92 93 94 95 96 97 98 99 100 101 102 103 104 105 106 106 107 107 108 108 108 109 109 109 109 110 110 110 110 110 110 110 109 109 109 109 109 109 108 108 107 107 106 106 105 105 105 104 103 102 101 100 100 99 99 99 98 98 98 97 96 95 94 94 93 93 92 92 92 92 91 90 88 86 84 82
82 83 84 85 86 87 88 89 90 91 92 93 94 95 96 97 99 100 101 102 103 103 104 104 105 105 105 106 106 106 106 107 107 107 107 107 107 107 107 108 107 107 107 107 106 106 105 104 104 103 102 101 101 100 100 100 99 98 98 97 97 96 95 95 94 94 94 93 93 92 91 91 91 90 90 90 89 89 90 90 88 86 85 83 81
80 81 82 83 85 86 87 88 89 91 92 93 94 95 96 97 98 99 99 100 101 101 102 103 103 104 104 104 104 104 104 104 104 104 105 105 105 106 106 106 105 105 104 103 103 102 101 100 99 98 97 97 96 96 96 95 95 95 94 94 93 93 92 91 91 90 90 90 90 89 88 88 88 87 87 87 86 86 87 87 86 84 83 81 80
80 81 82 83 85 86 87 88 89 90 91 92 93 94 95 95 96 97 98 98 99 100 100 101 101 102 102 102 102 102 102 102 103 103 103 103 103 103 103 103 102 101 100 99 98 97 96 95 95 94 93 93 93 93 93 92 92 91 91 90 90 90 89 88 88 88 88 88 87 87 86 85 85 85 84 84 83 83 83 84 84 82 80 79 78
80 81 82 83 84 85 86 87 88 89 89 90 91 92 93 94 95 96 96 97 97 98 99 99 100 100 101 101 101 101 101 101 101 101 101 101 100 100 100 99 98 97 96 94 93 93 92 92 91 91 90 90 90 90 90 90 89 88 87 87 87 86 86 86 85 85 85 85 85 84 84 83 83 82 82 81 80 79 79 80 80 80 78 77 76
79 81 82 82 83 84 85 86 86 87 88 89 90 91 92 93 94 95 95 96 97 97 98 98 99 99 100 100 99 99 99 98 98 98 97 97 97 96 96 96 95 94 93 91 90 90 89 89 88 88 88 87 87 87 87 87 87 86 85 85 84 84 84 84 83 82 83 83 83 82 82 81 81 80 80 79 78 77 77 77 77 77 76 76 75
79 80 80 81 82 83 84 85 86 87 88 88 89 90 91 92 93 94 95 96 96 97 97 98 97 97 97 97 97 96 96 96 95 95 94 94 93 93 93 93 92 91 90 89 88 87 87 86 86 86 85 85 85 84 84 85 85 84 84 84 83 83 82 82 82 81 80 81 81 80 80 80 79 79 78 78 76 75 75 75 74 74 74 74 73
78 79 80 81 82 83 84 85 85 86 87 88 89 90 91 92 93 94 94 95 95 96 96 96 96 96 95 95 94 94 93 92 92 91 91 91 91 91 90 90 90 89 88 87 85 85 84 84 83 83 83 82 82 82 82 82 83 83 82 82 81 81 81 81 80 80 79 78 78 78 78 77 77 77 77 76 74 73 72 72 72 71 71 71 71
78 79 80 80 81 82 83 84 85 85 86 87 88 89 90 91 92 93 93 94 94 94 94 94 94 94 93 92 92 91 90 89 89 88 88 88 88 88 88 87 87 87 86 84 83 82 82 82 81 81 80 80 80 80 81 81 81 82 81 80 79 79 79 79 78 77 76 76 75 75 75 75 75 75 74 74 72 71 70 70 70 69 68 69 69
77 78 79 80 80 81 82 83 84 85 86 87 88 89 90 91 91 92 92 92 92 92 92 92 91 91 90 90 89 88 88 88 87 86 86 86 85 85 84 84 84 84 84 83 81 80 80 80 80 79 79 79 79 79 79 80 80 80 80 79 77 76 76 75 75 74 73 73 73 72 72 72 72 72 72 71 70 69 69 68 68 67 66 66 66
77 77 78 79 79 80 81 82 84 85 86 87 88 89 90 90 90 91 91 91 91 90 90 89 89 88 88 88 87 86 85 85 84 84 83 82 82 82 81 81 81 82 81 81 80 79 78 78 78 79 78 78 78 78 78 78 78 78 78 77 76 74 73 72 71 70 70 70 70 69 70 70 70 69 69 68 67 67 67 67 66 66 65 64 64
76 77 77 78 79 80 81 82 83 84 86 86 87 88 88 89 89 89 89 89 88 87 87 87 86 86 85 85 84 83 82 81 81 81 81 80 79 79 78 78 78 79 79 79 78 77 76 76 76 77 77 77 76 76 76 76 76 76 75 75 74 72 70 69 68 67 67 68 67 67 68 68 68 67 66 65 65 65 64 64 64 64 64 63 62
75 76 77 78 79 80 81 82 83 84 85 85 86 87 87 87 88 88 87 87 86 85 85 84 84 83 82 81 80 79 79 78 78 78 78 78 77 76 76 75 75 75 75 76 76 75 74 74 74 74 74 74 74 74 73 73 73 73 72 72 71 69 68 67 65 65 66 66 66 66 67 67 66 65 64 64 63 63 62 61 62 62 63 62 60
75 76 77 78 79 80 81 82 82 83 84 85 85 86 86 86 86 86 85 85 84 83 82 82 81 81 80 79 78 77 76 76 76 76 76 76 76 75 74 73 72 72 71 72 73 73 72 72 72 72 72 72 72 71 71 70 70 69 69 69 68 67 66 64 63 63 64 64 64 65 65 65 64 63 62 61 61 61 60 59 59 59 60 60 59
75 76 77 78 79 80 80 81 82 83 83 84 85 85 85 85 85 84 83 82 81 80 79 78 78 78 78 78 78 77 75 74 74 75 74 74 74 73 73 72 71 71 70 70 71 71 70 70 70 71 70 70 70 69 68 68 67 67 66 66 66 65 64 63 62 62 62 62 62 63 63 63 62 61 60 59 59 59 58 57 57 56 56 57 57
75 76 77 78 79 80 80 81 82 82 83 83 83 84 84 83 82 81 80 79 79 78 77 76 76 76 75 75 76 75 74 73 73 73 73 73 72 72 71 71 70 70 70 69 69 69 68 68 68 68 68 68 67 67 66 65 64 64 64 64 63 63 63 62 61 61 61 60 61 61 61 60 59 59 58 58 57 57 56 55 54 53 53 53 53
76 77 77 78 79 80 80 81 81 82 82 82 82 82 81 80 80 79 78 77 76 76 75 74 74 74 73 73 73 73 72 72 72 71 71 71 71 70 70 70 70 69 69 69 69 68 67 66 66 66 66 65 65 64 63 63 62 62 62 62 62 61 61 60 60 59 59 59 59 59 59 58 57 57 57 56 56 54 53 52 52 51 50 50 50
76 77 77 78 79 80 80 81 81 81 81 81 81 80 79 78 77 76 76 75 74 74 73 72 72 72 72 71 71 71 71 70 69 69 69 68 68 68 68 68 68 68 68 68 68 67 66 65 64 64 64 63 63 62 61 61 61 60 60 60 60 59 59 59 58 58 58 58 57 57 57 56 55 55 55 54 53 52 51 50 49 49 48 48 47
77 77 78 78 79 79 80 80 80 80 80 79 79 78 77 76 75 74 74 73 73 72 71 70 70 70 70 70 70 70 70 69 68 67 67 66 66 66 66 66 66 66 66 66 67 66 65 64 63 63 63 62 61 60 60 60 59 59 58 58 58 58 58 57 57 57 57 56 55 55 54 54 54 53 52 51 50 49 48 48 47 46 46 45 45
77 77 78 78 78 79 79 79 78 78 78 77 77 76 75 74 74 73 72 72 71 70 69 68 68 68 68 68 69 68 68 67 67 66 66 65 65 64 64 64 64 64 64 64 64 65 64 62 61 60 61 60 60 59 58 58 57 57 57 56 56 57 57 56 56 56 55 54 53 53 52 52 51 50 49 48 47 47 46 45 44 44 44 43 42
77 77 77 78 78 78 77 77 77 77 76 76 75 74 74 73 72 71 71 70 69 68 68 67 66 66 66 66 66 66 66 66 66 65 65 65 64 63 63 63 62 62 61 61 62 63 62 61 60 59 59 59 59 58 57 56 55 55 55 55 55 55 56 55 55 54 53 52 51 51 50 49 48 47 46 45 45 44 44 43 42 41 41 40 39
77 77 77 77 77 76 76 75 75 75 74 74 73 73 72 71 70 69 69 68 67 67 67 66 66 65 64 64 64 64 64 64 64 64 64 64 64 63 62 62 61 60 59 59 60 61 61 60 59 57 57 57 57 57 55 54 54 53 53 53 53 54 54 54 53 52 51 50 49 49 48 47 45 44 43 43 42 42 42 41 40 39 39 38 37
77 77 76 76 75 75 74 74 73 73 72 72 71 71 70 69 68 68 67 67 66 65 65 65 65 64 63 62 62 62 62 62 62 62 63 63 62 62 61 61 60 58 58 58 59 59 59 59 58 57 56 56 56 55 54 53 52 52 52 52 52 52 52 52 51 50 49 47 47 46 45 44 42 41 41 41 40 40 40 39 38 37 36 35 34
76 76 75 75 74 73 73 72 71 71 70 70 69 69 68 67 67 66 66 65 65 64 64 64 63 63 62 62 61 61 60 60 60 60 61 60 60 59 59 59 58 57 56 57 57 58 58 58 57 55 55 54 54 54 53 52 51 50 50 50 50 49 49 49 48 47 46 45 44 43 42 40 40 40 39 39 38 38 37 37 36 35 34 33 31
75 75 74 73 73 72 71 71 70 69 68 68 67 67 66 66 65 65 64 64 63 63 63 62 61 61 61 61 60 60 59 59 59 59 59 58 57 57 57 57 56 56 56 56 56 57 57 56 55 54 53 53 52 52 51 50 49 48 48 49 48 48 47 46 45 45 44 43 42 40 38 38 38 37 37 37 36 36 35 35 34 33 32 30 30
74 73 72 72 71 70 69 69 68 68 67 66 66 65 65 64 63 63 63 62 62 61 61 61 60 60 60 60 59 59 58 58 57 57 56 56 56 56 56 55 55 55 56 56 55 56 56 55 53 52 52 51 50 49 49 48 47 46 47 47 47 46 45 43 42 42 41 41 39 38 36 36 35 35 35 35 34 34 33 33 32 31 30 29 29
72 71 70 70 69 69 68 67 67 67 66 65 64 64 63 62 62 61 61 61 60 60 59 59 59 59 59 59 58 57 57 56 56 55 55 55 55 55 55 54 54 55 55 54 54 54 54 53 51 50 50 49 48 47 46 45 44 44 44 45 45 44 42 41 40 39 39 38 37 36 35 34 33 33 32 32 32 32 31 30 29 29 28 28 27
70 69 69 68 68 67 67 66 66 65 65 64 63 62 61 61 60 60 60 59 58 58 58 57 57 57 58 57 57 56 55 54 54 53 53 53 54 54 54 53 53 53 53 52 51 51 51 50 49 48 47 46 45 44 43 43 42 42 42 43 43 42 40 38 37 37 36 36 35 34 33 32 32 31 30 30 30 30 29 28 27 26 25 25 24
68 68 67 67 66 66 65 65 64 64 63 62 61 60 60 59 59 58 58 57 57 56 56 56 56 56 56 56 55 54 53 53 52 52 52 52 52 52 52 51 51 50 50 50 49 49 48 47 46 45 45 44 43 42 41 41 40 40 40 40 40 39 38 36 35 35 34 33 33 32 31 31 30 29 28 28 28 27 26 25 24 23 22 22 21
Wind_Direction
255 256 256 257 258 258 259 259 260 260 261 261 262 262 263 264 264 265 265 266 266 267 267 268 269 269 270 271 271 272 272 273 273 274 274 275 276 276 277 277 278 278 279 279 280 280 280 280 281 281 281 281 282 282 282 282 282 282 281 281 281 281 280 280 280 280 280 280 280 279 279 279 279 279 279 279 279 279 279 279 279 279 279 279 279
256 256 257 257 258 258 259 259 260 260 261 261 262 262 262 263 264 264 265 265 266 266 267 268 268 269 269 270 271 271 272 272 273 274 274 275 275 276 277 277 278 279 279 279 280 280 280 280 281 281 281 281 281 282 282 282 282 282 281 281 281 281 281 281 281 281 281 281 281 280 279 279 279 279 279 279 279 279 279 279 278 278 278 278 278
255 256 257 257 258 258 259 259 260 260 261 261 262 262 262 263 263 264 264 265 265 266 267 267 268 269 269 270 270 271 272 273 273 274 274 275 276 276 277 278 278 279 279 279 280 280 280 280 280 281 281 281 281 281 282 282 282 282 282 282 282 282 282 282 282 282 282 282 282 281 281 280 280 280 280 279 279 279 278 278 278 278 277 277 277
255 255 256 257 258 258 259 259 260 260 261 261 262 262 262 263 263 264 264 265 265 266 267 267 268 269 269 270 271 272 272 273 273 274 275 275 276 276 277 278 278 278 279 279 279 279 280 280 280 280 281 281 281 281 282 282 282 282 282 283 283 283 283 283 282 282 282 282 282 282 282 281 281 281 281 280 280 279 279 278 278 278 277 277 276
256 256 256 256 257 257 258 258 259 260 260 261 262 262 263 263 264 264 265 265 266 267 267 268 269 269 270 271 271 272 273 273 274 274 275 275 276 276 277 277 278 278 278 279 279 279 279 280 280 280 281 281 282 282 282 282 283 283 283 283 283 283 283 283 283 283 283 283 282 282 282 282 281 281 281 281 280 280 280 280 279 279 278 277 277
258 258 258 257 257 257 258 258 258 259 260 261 261 262 263 264 264 265 266 266 267 268 269 269 270 271 271 272 272 273 273 274 274 275 275 275 276 276 277 277 277 278 278 278 279 279 280 280 280 281 281 282 282 283 283 283 283 283 283 283 283 283 283 284 284 284 283 283 283 282 282 282 282 282 282 281 281 281 281 281 280 280 279 279 278
259 259 259 259 259 259 259 259 260 260 260 261 262 263 263 264 265 266 267 267 268 269 270 270 271 271 272 272 273 273 273 274 274 275 275 275 276 276 277 277 277 278 278 279 279 279 280 281 281 282 282 282 283 283 283 283 283 283 284 284 284 284 284 284 284 284 284 284 283 283 283 283 283 282 282 282 282 282 281 281 281 281 281 280 279
259 260 260 261 261 261 261 262 261 262 262 262 263 264 264 265 266 266 267 268 268 269 270 270 271 271 272 272 273 273 274 274 274 275 275 276 276 276 277 277 278 278 278 279 279 280 281 281 282 282 282 283 283 283 283 283 284 284 284 284 284 284 284 284 284 284 284 284 284 284 284 284 283 283 283 283 283 282 282 282 281 281 281 281 280
260 261 261 261 262 262 262 263 263 263 263 264 264 265 265 266 266 267 268 268 269 269 270 270 271 271 272 272 273 273 274 274 274 275 275 276 276 277 277 278 278 278 279 279 280 280 281 281 282 282 282 283 283 283 283 284 284 284 284 284 284 285 285 285 285 285 285 285 285 285 284 284 284 284 284 283 283 283 282 282 282 281 281 280 280
261 261 262 262 263 263 263 264 264 264 265 265 266 266 266 267 267 268 268 269 269 270 270 271 271 272 272 272 273 273 274 274 275 275 275 276 276 277 277 278 278 279 279 280 280 281 281 281 282 282 283 283 283 284 284 284 284 284 284 284 284 285 285 285 285 285 285 285 285 285 285 285 284 284 284 283 283 283 283 282 282 282 281 280 280
262 263 263 263 264 264 265 265 265 266 266 266 267 267 267 268 268 269 269 270 270 271 271 271 272 272 273 273 273 274 274 275 275 275 276 276 277 277 278 278 279 279 280 280 281 281 282 282 282 283 283 283 283 284 284 284 284 284 284 284 285 285 285 285 285 285 285 285 285 285 285 284 284 284 284 283 283 283 283 283 282 281 281 280 280
263 263 264 264 265 265 266 266 266 267 267 267 268 268 269 269 269 270 270 271 271 272 272 273 273 273 274 274 274 275 275 275 276 276 276 277 277 278 278 279 279 280 280 281 281 282 282 282 283 283 283 283 283 283 284 284 284 284 285 285 285 285 285 285 285 285 285 285 285 285 284 284 284 284 284 284 283 283 283 283 282 281 281 280 280
264 264 265 265 265 266 266 267 267 268 268 269 269 270 270 270 271 271 272 272 272 273 273 273 274 274 274 275 275 275 275 276 276 276 276 277 278 278 279 279 280 280 280 281 281 282 282 282 282 282 283 283 283 284 284 284 284 285 285 285 285 285 285 285 285 285 284 284 284 284 284 284 284 284 284 284 284 283 283 283 282 282 281 281 280
264 265 265 266 266 267 267 268 268 269 269 270 270 271 271 271 272 272 273 273 273 273 274 274 274 275 275 275 275 276 276 276 277 277 277 277 278 279 279 280 280 280 281 281 281 281 282 282 282 283 283 283 284 284 284 284 285 285 285 285 285 285 285 285 284 284 284 284 284 284 284 284 284 284 284 284 284 284 284 283 283 283 282 282 282
264 265 265 266 267 267 268 269 269 270 270 271 271 271 272 272 272 273 273 273 274 274 274 275 275 275 275 276 276 276 277 277 277 278 278 278 278 279 279 280 280 280 281 281 281 282 282 282 283 283 283 284 284 284 284 284 285 285 285 285 285 285 284 284 284 284 284 284 284 284 284 284 284 284 284 284 284 284 284 283 283 283 283 282 282
265 265 266 267 267 268 268 269 269 270 270 270 271 271 272 272 272 273 273 274 274 274 275 275 275 275 276 276 277 277 278 278 278 279 279 279 279 279 279 280 280 280 281 281 282 282 282 283 283 284 284 284 284 284 284 285 285 285 285 285 285 285 285 285 285 285 285 285 285 285 285 285 285 285 284 284 284 284 284 284 284 283 283 283 283
266 267 267 268 268 268 269 269 269 270 270 271 271 272 272 273 273 274 274 274 275 275 275 276 276 276 277 277 278 278 278 279 279 279 279 279 280 280 280 280 280 281 281 282 282 282 283 283 284 284 284 284 284 285 285 285 285 285 285 285 285 285 285 285 285 286 286 286 286 286 286 286 286 286 285 285 285 285 284 284 284 284 283 283 283
267 267 268 268 269 269 270 270 271 271 271 272 272 273 273 274 274 274 275 275 275 276 276 276 277 277 278 278 278 279 279 279 280 280 280 280 280 281 281 281 281 282 282 282 283 283 283 284 284 284 284 285 285 285 285 285 285 285 285 286 286 286 286 286 286 287 287 287 287 287 286 286 286 286 286 285 285 284 284 283 283 283 283 283 282
267 268 269 269 270 270 271 271 272 272 273 273 273 274 274 274 275 275 275 276 276 277 277 278 278 278 278 279 279 280 280 280 281 281 281 282 282 282 282 282 283 283 283 283 284 284 284 284 285 285 285 285 285 285 285 285 285 285 286 286 286 286 287 287 287 287 287 287 287 287 287 286 286 286 286 285 285 284 284 283 282 282 281 281 281
269 270 270 271 271 272 272 273 273 273 273 274 274 274 275 275 276 277 277 277 278 278 278 279 279 279 280 280 281 281 281 282 282 282 282 283 283 283 283 283 283 284 284 284 284 284 284 285 285 285 285 285 285 285 285 285 286 286 286 286 286 287 287 287 287 287 287 287 287 287 287 287 287 287 286 286 285 285 284 283 282 282 281 281 281
271 271 272 272 272 273 273 273 273 274 274 275 275 276 276 277 277 278 278 278 279 279 280 280 280 281 281 281 282 282 282 282 283 283 283 283 284 284 284 284 284 284 284 284 284 284 285 285 285 285 285 285 286 286 286 286 286 286 286 286 287 287 287 288 288 288 288 288 288 288 288 288 288 287 287 287 286 286 285 284 284 283 282 282 282
271 271 272 272 272 273 273 274 274 275 275 276 276 277 277 278 278 279 279 280 280 280 281 281 281 282 282 282 282 283 283 283 283 283 283 284 284 284 285 285 285 285 285 285 285 285 285 285 285 285 286 286 286 286 286 286 286 286 286 287 287 287 287 287 288 288 288 288 288 288 288 288 288 287 287 287 287 286 286 285 285 284 283 283 282
270 271 272 272 273 274 274 275 275 276 276 277 277 278 278 279 279 280 280 280 281 281 281 282 282 282 282 283 283 283 283 283 284 284 284 284 284 285 285 285 285 285 285 286 286 286 286 286 286 286 286 286 286 286 286 286 286 287 287 287 287 287 287 287 287 287 288 288 288 288 288 288 288 288 288 288 287 287 287 286 286 285 285 284 283
271 272 272 273 274 274 275 275 276 276 277 278 278 279 279 280 280 280 281 281 281 282 282 282 283 283 283 283 284 284 284 284 285 285 285 285 286 286 286 286 286 286 286 286 286 286 286 287 287 287 287 286 286 286 286 287 287 287 287 287 287 287 287 287 287 287 287 287 287 287 288 288 288 288 288 288 288 288 287 287 287 286 286 285 285
272 273 273 273 274 275 275 276 277 277 278 279 279 279 280 280 281 281 281 282 282 283 283 284 284 284 284 285 285 285 286 286 286 287 287 287 287 287 287 287 287 287 287 287 287 287 287 287 287 287 287 287 287 287 287 287 287 287 287 287 287 287 287 287 287 287 287 287 287 288 288 288 288 288 288 288 288 288 288 288 287 287 287 287 286
273 273 274 275 275 276 276 277 278 278 279 279 280 280 281 281 282 282 283 283 284 284 285 285 285 286 286 287 287 287 288 288 288 288 288 288 288 288 287 287 287 287 288 288 288 288 288 288 288 288 288 287 287 287 287 287 287 287 287 288 288 288 288 288 288 288 288 288 288 288 289 289 289 288 288 288 288 288 288 288 288 288 288 287 287
274 274 275 276 276 277 278 278 279 280 280 281 281 282 282 283 284 284 284 285 285 286 286 287 287 287 288 288 288 289 289 289 289 289 288 288 288 288 288 288 288 288 288 289 289 289 289 289 288 288 288 288 288 288 288 288 288 288 288 288 288 288 289 289 289 289 289 289 290 290 290 290 289 289 289 288 288 288 288 289 289 289 289 289 289
275 276 277 277 278 279 280 280 281 281 282 282 283 284 284 285 285 286 286 286 287 287 287 288 288 289 289 289 289 289 289 289 289 289 289 289 289 289 289 289 289 289 289 289 289 289 289 289 289 289 289 289 289 289 289 289 289 289 289 289 289 290 290 290 290 291 291 291 291 291 291 291 291 290 290 290 290 290 290 290 290 290 291 290 290
277 278 279 279 280 281 282 282 283 283 284 284 285 285 286 286 286 287 287 287 288 288 289 289 289 290 290 290 290 290 290 290 290 290 290 289 289 290 290 290 290 290 290 290 290 290 290 290 290 290 290 290 290 290 290 290 290 290 291 291 291 291 291 292 292 292 292 292 292 292 292 292 292 291 291 291 291 291 291 291 291 291 291 290 290
279 280 281 282 282 283 283 284 284 285 285 285 286 286 286 287 287 288 288 289 289 290 290 290 290 290 290 290 290 290 290 290 290 290 290 290 290 290 291 291 291 291 291 291 291 291 291 290 290 290 290 290 290 290 290 290 291 291 291 292 292 292 292 293 293 293 293 293 293 293 292 292 292 291 291 291 291 291 291 291 291 291 291 291 291
281 282 283 283 284 284 285 285 285 286 286 286 287 287 288 288 288 289 289 290 290 290 291 291 291 291 291 291 291 291 291 291 290 290 291 291 291 291 291 292 292 292 292 291 291 291 291 291 291 291 291 291 291 291 291 291 292 292 292 292 292 292 292 293 293 293 293 293 293 292 292 292 291 291 291 291 292 292 291 291 291 291 291 291 291
283 284 284 284 285 285 286 286 286 287 287 287 288 288 288 289 289 290 290 290 291 291 291 291 291 291 291 291 291 291 291 292 291 291 291 291 291 292 292 292 292 292 293 293 293 292 292 292 292 292 292 292 292 292 292 292 292 292 292 292 292 292 292 293 293 293 293 292 292 292 291 291 291 291 291 292 292 292 292 292 292 291 291 291 292
284 284 285 285 285 286 286 287 287 287 288 288 289 289 289 290 290 290 291 291 291 291 291 292 292 292 292 292 292 292 292 292 292 292 292 292 292 292 293 293 293 293 293 293 293 293 293 293 293 293 292 292 292 292 292 292 292 292 292 292 293 293 293 293 293 293 292 292 292 292 291 291 291 291 291 292 292 293 293 293 293 292 292 292 292
285 285 285 286 286 286 287 287 288 288 289 289 289 290 290 291 291 291 291 291 291 292 292 292 292 292 292 292 292 293 293 293 293 293 292 292 292 293 293 293 293 293 293 293 293 293 293 292 292 292 292 292 292 292 292 292 292 292 293 293 293 293 293 293 293 293 293 292 292 292 292 291 291 292 293 293 293 293 293 294 293 293 293 292 292
285 286 286 287 287 287 288 288 288 289 289 290 290 291 291 291 291 291 292 292 292 293 293 293 293 292 292 292 292 293 293 293 293 293 293 293 293 292 292 292 292 292 292 292 292 292 292 292 292 292 292 292 292 292 292 292 292 293 293 293 294 294 294 294 294 294 293 293 293 292 292 292 292 293 294 294 294 294 294 294 294 293 293 293 292
286 287 287 288 288 288 289 289 290 290 291 291 291 292 292 292 292 292 292 293 293 293 293 294 294 294 294 294 293 293 293 293 293 293 293 293 293 293 293 293 292 292 292 292 292 293 293 293 293 293 292 293 293 293 293 293 293 293 293 294 294 294 294 294 294 293 293 293 293 293 292 292 293 294 294 294 294 294 294 294 294 294 293 293 293
287 288 288 289 289 290 290 291 291 291 292 292 292 292 292 292 293 293 293 294 294 294 294 294 294 295 295 295 295 295 295 295 294 294 294 294 294 294 294 294 294 294 294 293 293 293 294 294 294 294 294 293 293 293 293 293 294 294 294 294 294 294 294 294 294 293 293 293 293 293 293 293 294 295 295 295 295 295 295 295 295 294 294 294 295
289 289 289 290 290 291 291 292 292 292 293 293 293 293 293 293 293 294 294 294 295 295 295 295 295 295 295 295 295 295 296 295 295 295 295 295 295 295 295 295 295 295 295 295 294 294 294 294 294 294 294 294 294 294 294 294 294 294 294 294 294 294 294 294 294 294 294 294 293 293 294 295 296 296 296 296 296 296 296 296 296 296 295 295 295
289 290 290 291 291 292 292 293 293 293 293 293 293 293 293 294 294 295 295 295 295 295 296 296 296 296 296 296 295 295 296 296 296 296 296 296 296 296 297 297 296 296 296 296 295 295 295 295 294 294 294 294 294 294 295 294 294 294 294 294 294 294 294 295 295 295 295 295 295 295 296 297 297 297 297 297 297 298 298 298 297 296 296 295 295
290 291 292 292 292 293 293 293 294 294 294 294 294 294 294 295 295 296 296 296 296 296 296 296 296 296 296 296 296 296 296 296 296 296 296 296 296 297 297 297 297 297 297 297 296 296 296 296 296 295 295 295 295 295 295 295 295 295 295 295 295 295 295 295 296 295 295 296 296 297 298 298 298 298 298 299 299 299 299 298 297 297 296 296 296
291 292 292 293 293 294 294 294 295 295 295 295 295 295 295 296 296 296 297 297 297 297 297 297 297 297 297 296 296 296 296 296 296 296 296 296 296 296 297 297 297 298 298 297 297 297 296 296 296 296 296 295 295 296 295 295 295 295 296 296 296 296 296 296 296 296 296 297 297 298 299 299 299 299 299 300 300 300 299 298 298 297 297 297 297
292 293 293 294 294 295 295 295 295 295 295 295 296 296 296 297 297 297 297 297 297 297 297 297 297 297 297 297 296 296 297 297 297 297 297 297 297 297 297 298 298 297 297 297 297 296 296 296 296 296 296 296 296 296 296 296 296 296 296 296 297 297 296 296 296 296 297 298 299 300 300 299 300 300 301 301 301 300 299 298 298 298 298 297 298
293 294 294 295 295 295 296 296 296 296 296 296 296 297 297 298 298 298 298 298 298 298 297 297 297 297 297 297 297 297 297 298 298 298 298 298 298 298 298 298 297 297 297 297 296 296 296 296 296 296 296 296 296 296 296 297 297 297 297 297 297 297 296 296 297 298 299 300 300 300 300 300 301 302 302 301 300 299 299 299 299 299 299 299 299
294 295 295 295 296 296 296 296 296 296 296 297 297 297 298 298 298 298 298 298 298 298 298 298 298 297 297 298 298 298 298 299 299 299 299 299 299 299 299 298 298 298 298 297 296 296 296 296 296 297 297 297 297 297 298 298 298 298 298 298 297 297 297 297 298 299 300 301 301 301 301 302 303 303 302 301 300 300 300 300 300 300 300 301 301
295 295 296 296 296 296 296 296 296 296 297 297 298 298 298 298 298 298 298 298 298 299 299 298 298 298 298 298 298 298 298 298 298 298 299 299 299 299 299 298 298 298 298 297 296 296 296 297 297 298 298 298 298 298 299 299 299 298 298 297 297 297 297 298 299 300 301 301 301 301 303 304 304 303 302 301 301 301 301 301 302 302 303 303 303
296 296 297 297 297 297 297 296 297 297 297 298 298 298 298 298 298 298 299 299 299 299 299 298 298 299 299 299 298 298 298 299 298 298 298 298 299 299 298 298 298 298 298 297 297 297 297 297 298 298 299 298 299 299 299 299 299 298 298 297 297 297 298 299 300 301 302 302 302 303 304 305 304 303 302 302 302 303 303 303 303 304 304 304 304
296 297 297 297 297 297 297 297 297 297 298 298 298 298 298 298 299 299 299 299 299 299 299 299 299 299 299 299 299 299 299 299 298 298 298 299 299 299 298 299 299 299 298 298 298 298 297 298 299 299 299 299 299 299 299 299 299 299 298 298 298 299 299 300 301 302 302 302 303 304 305 304 304 303 304 304 304 304 304 304 305 305 306 306 305
297 297 297 297 297 297 297 297 298 298 298 298 298 298 298 299 299 299 299 299 299 299 299 299 299 299 299 299 299 299 299 299 299 299 299 300 300 299 299 300 300 299 298 298 298 298 298 299 300 300 300 300 299 299 299 300 300 299 299 299 299 300 300 301 302 303 303 303 304 305 305 305 305 305 305 305 305 305 305 306 306 307 308 308 308
296 296 296 297 297 297 297 298 298 298 298 298 298 298 299 299 299 299 299 299 299 299 299 299 299 299 299 299 299 300 300 300 300 300 301 301 300 300 300 300 300 299 298 298 298 298 298 299 300 300 300 300 300 300 300 300 300 299 299 299 299 300 302 303 304 303 303 304 305 306 306 306 306 306 306 306 305 305 306 307 308 309 309 309 310
296 296 297 297 297 297 298 298 298 298 298 298 299 299 299 299 299 299 299 299 299 299 299 299 299 300 300 300 300 300 300 300 300 301 301 301 300 300 300 300 299 298 298 298 298 298 299 299 300 300 300 301 301 301 300 300 300 299 300 300 300 301 304 304 304 304 304 305 306 307 307 307 307 307 307 306 306 306 308 309 310 311 310 310 308
296 296 297 297 297 297 298 298 298 298 298 299 299 300 300 299 299 299 299 299 299 299 299 299 300 300 300 300 300 301 301 300 301 301 301 300 300 300 299 299 299 298 298 298 299 299 299 300 301 301 301 301 302 301 300 300 300 300 300 301 302 303 304 305 305 305 305 306 307 307 308 308 308 308 308 307 307 308 310 311 311 311 310 309 308